This is the latest recevied weather packets stored in our database for station/object K4CRS-13. If no packets are shown the sender has not sent any weather packets the latest 10 day(s).
| Time | Temp. | Humidity | Pressure | Rain* | Wind** | Luminosity | Snow |
|---|---|---|---|---|---|---|---|
| 1777475566 | 20.56° C | 99% | 1049 hPa | 0 mm | - | 76 W/m² | - |
| 1777475262 | 20° C | 99% | 1048.9 hPa | 0 mm | - | 142 W/m² | - |
| 1777474957 | 20° C | 99% | 1048.9 hPa | 0 mm | - | 99 W/m² | - |
| 1777474653 | 20.56° C | 99% | 1048.8 hPa | 0 mm | - | 132 W/m² | - |
| 1777474351 | 20° C | 99% | 1048.8 hPa | 0 mm | - | 154 W/m² | - |
| 1777474046 | 20° C | 99% | 1048.6 hPa | 0 mm | - | 126 W/m² | - |
| 1777473745 | 20° C | 99% | 1048.7 hPa | 0 mm | - | 185 W/m² | - |
| 1777473441 | 20° C | 99% | 1048.7 hPa | 0 mm | - | 205 W/m² | - |
| 1777473136 | 20° C | 99% | 1048.8 hPa | 0 mm | - | 111 W/m² | - |
| 1777472834 | 20° C | 99% | 1048.6 hPa | 0 mm | - | 137 W/m² | - |
| 1777472530 | 20° C | 99% | 1048.7 hPa | 0 mm | - | 183 W/m² | - |
| 1777472227 | 20° C | 99% | 1048.7 hPa | 0 mm | - | 127 W/m² | - |
| 1777471922 | 20° C | 99% | 1048.6 hPa | 0 mm | - | 87 W/m² | - |
| 1777471620 | 19.44° C | 99% | 1048.4 hPa | 0 mm | - | 131 W/m² | - |
| 1777471316 | 19.44° C | 99% | 1048.6 hPa | 0 mm | - | 203 W/m² | - |
| 1777471013 | 18.89° C | 99% | 1048.7 hPa | 0 mm | - | 82 W/m² | - |
| 1777470710 | 18.89° C | 99% | 1049.1 hPa | 0 mm | - | 38 W/m² | - |
| 1777470406 | 18.89° C | 99% | 1049.4 hPa | 0 mm | - | 12 W/m² | - |
| 1777470103 | 18.89° C | 99% | 1049.2 hPa | 0 mm | - | 24 W/m² | - |
| 1777469799 | 18.89° C | 99% | 1049.2 hPa | 0 mm | - | 42 W/m² | - |
| 1777469494 | 18.89° C | 99% | 1049.2 hPa | 0 mm | - | 36 W/m² | - |
| 1777469189 | 18.89° C | 99% | 1048.8 hPa | 0 mm | - | 29 W/m² | - |
| 1777468889 | 18.89° C | 99% | 1048.8 hPa | 0 mm | - | 42 W/m² | - |
| 1777468586 | 18.89° C | 99% | 1049.2 hPa | 0 mm | - | 37 W/m² | - |
| 1777468282 | 18.33° C | 99% | 1048.8 hPa | 0 mm | - | 19 W/m² | - |
* Rain latest hour (hover to see other rain measurements)
** Current wind speed in m/s (hover to see current wind gust speed)